Чолпон

Киргизия     42°51′28″N   75°08′35″E
темп.,
°C
ветер,
м/с
пор.,
м/с
влажн.,
%
обл.,
%
осадки,
мм/ч
давл.,
гПа
погр.,
м
22 октября, пт
пт2200:00+5зсз6794100 1.4 1024843
03:00+2зсз3598100 4.9 1029382
06:00+1зсз2399100 7.5 1030262
09:000зюз2396100 2.4 1032232
12:00+2зсз1175100 3.0 1032683
15:00+3зсз2171100 0.1 1032723
18:00+1з458799 0.8 1035469
21:00+1зюз138792 0.6 1038273
23 октября, сб
сб2300:00−1юв22818 0.8 103840
03:00−2ююв23702 0.0 103867
06:00−2ююв22620 0.0 103821
09:00+2юв12602 0.0 1036109
12:00+5ссв12500 0.0 1034386
15:00+8сз12421 0.0 1031685
18:00+5вюв01520 0.0 103111
21:00+4ююв33530 0.0 103325
24 октября, вс
вс2400:00+4ююв33470 0.0 103130
03:00+3ююв33460 0.0 102933
06:00+3ююв33460 0.0 102828
09:00+7юв24450 0.0 1026143
12:00+13всв33310 0.0 1022602
15:00+14всв33270 0.0 1020688
18:00+9ююв23410 0.0 102028
21:00+7ююв33370 0.0 102040
25 октября, пн
пн2500:00+6ююв33360 0.0 101839
03:00+6ююв23360 0.0 101728
06:00+6ююв23370 0.0 101625
09:00+9юв13350 0.0 101696
12:00+15ссв22230 0.0 1014622
15:00+17с22210 0.0 1014828
18:00+11юз11320 0.0 101511
21:00+10ююв33300 0.0 101727
26 октября, вт
вт2600:00+9ююв33300 0.0 101621
03:00+9ююв33300 0.0 101626
06:00+9ююв33280 0.0 101621
09:00+11юв12271 0.0 101769
12:00+16св23210 0.0 1015701
15:00+18сз32200 0.0 10151007
18:00+12зюз22272 0.0 101820
21:00+10ююв223216 0.0 102018